Flag for Germany Weather past 2 weeks in Trier, Rhineland-Palatinate, Germany

Now
60 °F

Sunny.


Feels Like: 60 °F
Forecast: 41 / 65 °F
Wind: 2 mph from Southwest

Location: Trier-Petrisberg

Current Time: Aug 21, 2014 at 8:28:10 PM

Latest Report: Aug 21, 2014 at 8:00 PM


Visibility: 44 mi

Pressure: 30.01 "Hg

Humidity: 57%

Dew point: 44 °F

Location of TrierLocation

Historic Weather in Trier — Graph

°F

Trier temperature yesterday

Maximum temperature yesterday: 64 °F (at 5:00 PM)
Minimum temperature yesterday: 44 °F (at 5:00 AM)
Average temperature yesterday: 54 °F

Past Weeks' High & Low Weather Summary

 TemperatureHumidityPressure
High78 °F (Aug 7, 8:00 PM)100% (Aug 7, 8:00 AM)30.16 "Hg (Aug 7, 8:00 AM)
Low44 °F (Aug 20, 5:00 AM)41% (Aug 21, 5:00 PM)29.66 "Hg (Aug 13, 3:00 PM)
Average61 °F81%29.92 "Hg
* Reported Aug 6 7:00 PM — Aug 21 7:00 PM, Trier, Weather by CustomWeather, © 2014

Note: Actual official high and low records may vary slightly from our data, if they occured in-between our weather recording intervals... More about our weather records

Advertising

Trier weather history for previous 24 hours

 ConditionsComfort  
Time TempWeatherWind HumidityBarometerVisibility
7:00 PM
Aug 21
63 °FScattered clouds.6 mph49%30.00 "Hg43 mi
6:00 PM65 °FScattered clouds.5 mph42%30.01 "Hg43 mi
5:00 PM67 °FPassing clouds.5 mph41%30.01 "Hg28 mi
4:00 PM64 °FScattered clouds.3 mph45%30.03 "Hg22 mi
3:00 PM64 °FScattered clouds.6 mph46%30.04 "Hg22 mi
2:00 PM62 °FPartly sunny.3 mph54%30.05 "Hg16 mi
1:00 PM59 °FPartly sunny.3 mph66%30.07 "Hg16 mi
12:00 PM62 °FPassing clouds.3 mph61%30.06 "Hg16 mi
11:00 AM58 °FPassing clouds.2 mph76%30.08 "Hg16 mi
10:00 AM52 °FFog.1 mph84%30.09 "Hg16 mi
9:00 AM47 °FFog.1 mph100%30.10 "Hg0 mi
8:00 AM46 °FFog.1 mph100%30.10 "Hg0 mi
7:00 AM45 °FFog.1 mph99%30.08 "Hg0 mi
6:00 AM44 °FPassing clouds.1 mph98%30.08 "Hg16 mi
5:00 AM46 °FPassing clouds.1 mph98%30.08 "Hg12 mi
4:00 AM46 °FClear.1 mph97%30.08 "Hg18 mi
3:00 AM47 °FClear.1 mph96%30.07 "Hg22 mi
2:00 AM48 °FOvercast.1 mph93%30.07 "Hg31 mi
1:00 AM49 °FOvercast.2 mph90%30.06 "Hg28 mi
12:00 AM51 °FPassing clouds.1 mph85%30.06 "Hg40 mi
11:00 PM
Aug 20
53 °FClear.1 mph81%30.05 "Hg43 mi
10:00 PM54 °FPassing clouds.1 mph83%30.03 "Hg43 mi
9:00 PM57 °FClear.3 mph74%30.01 "Hg43 mi
8:00 PM63 °FSunny.2 mph56%29.99 "Hg43 mi
Weather by CustomWeather, © 2014

See weather overviewHow to use our weather pages